STARLINK-34406, 64705

Orbit data source: Space-Track

STARLINK-34406, 64705 is a payload satellite owned by SpaceX/Seattle (US) in LEO that was launched on Sat, 28 Jun 2025 UTC via an FALCON 9 launch vehicle from the Air Force Western Test Range (AFWTR). Payload-class satellites include a variety of spacecraft equipped with specific instruments for various scientific and technological missions. These include communications satellites like Starlink; space stations such as the ISS; scientific satellites like the Hubble; Earth observation satellites from companies like Planet Labs, Umbra, and HawkEye 360; GPS; miniature CubeSats for education and research; and military/defense satellites.

Loading next visibility...
Identifier
64705, 2025-142K
Orbit
LEO
Country
Flag of USUS
Related business
Manufacturer
SpaceX/Seattle
Mission
Operational Commercial Communications
Bus & Motor
STARLINK V2MO, Unknown motor
Mass
575 kg wet, ~530 kg dry
Launch date (UTC)
2025-06-28 (11 months ago)
Launch vehicle
FALCON 9
Launch site
Air Force Western Test Range (AFWTR)
Object type
Payload
Rocket body
Debris
Shape & HBR
Box + 2 Pan, 17.7 m
Radar Cross Section
36.964 m², Large (>1 m²)

Expand to show TLE details & history
Last TLE update: 11 hours ago

TLE from 11 hours ago
0 STARLINK-34406
1 64705U 25142K   26145.36298358  .00002788  00000-0  24127-3 0  9992
2 64705  70.0002 121.2201 0004052 264.5326  95.5371 14.98337276 51085
Epoch: 2026-05-25T08:42Z
TLE epoch observation values (Epoch: 2026-05-25T08:42:41.781Z)
Latitude
-0.00001°
Longitude
107.59416°
Altitude
574.73 km
Speed
7.574 km/s
True Right ascension
08h 04m 52s
True Declination
0° 00' 00"
Sunlit
Object was in daylight at epoch
Visualization orbit readout
Latitude
Unknown
Longitude
Unknown
Altitude
Unknown
Speed
Unknown
Apparent Right ascension
Unknown
Apparent Declination
Unknown
Sunlit
N/A
Visualization observer readout
Local Sidereal Time
05:00:47
Azimuth
Unknown
Elevation
Unknown
Doppler factor
Unknown
Orbital elements
Apogee altitude
572.797 km
Perigee altitude
567.166 km
Semi-major axis
6,948.119 km
Eccentricity
0.00041
Inclination
70.0002°
RAAN
121.2201°
Arg. of periapsis
264.5326°
True anomaly
95.58331°
Mean anomaly
95.5371°
Eccentric anomaly
95.56021°
Mean motion
3.74751 °/min
Orbital period
96.06 mins
BSTAR
0.00024127
Loading maneuver chart data...
Computing Atmospheric mass density...
Loading historical data...
Loading historical data...
Loading historical data...
Loading historical data...
Loading historical data...
Loading historical data...
Loading historical data...

Documentation

Showing up to 5 results
|